KI0IO-2 Weather Reports


Display with metric or nautical units.
time (UTC)temp
F
wind
direction
speed
MPH
gust
MPH
rain 1hr
in
rain 24hr
in
rain mn
in
humidity
%
barometer
mb
20210803114004 66 265 1.0 0.0 0.00 0.00 0.00 66 1010.1
20210803113504 66 265 1.0 0.0 0.00 0.00 0.00 66 1010.1
20210803113004 66 265 1.0 0.0 0.00 0.00 0.00 66 1010.1
20210803112504 66 265 1.0 0.0 0.00 0.00 0.00 66 1010.1
20210803112004 66 265 1.0 0.0 0.00 0.00 0.00 66 1010.1
20210803111504 66 265 1.0 0.0 0.00 0.00 0.00 66 1010.1
20210803111004 66 265 1.0 2.0 0.00 0.00 0.00 66 1010.1
20210803110505 66 265 1.0 2.0 0.00 0.00 0.00 66 1010.1
20210803110004 67 265 1.0 2.0 0.00 0.00 0.00 66 1010.1
20210803105504 67 265 0.0 3.0 0.00 0.00 0.00 66 1010.2
20210803105005 67 265 2.0 3.0 0.00 0.00 0.00 65 1010.2
20210803104505 66 265 1.0 3.0 0.00 0.00 0.00 64 1010.3
20210803104005 66 265 0.0 3.0 0.00 0.00 0.00 65 1010.4
20210803103504 66 265 0.0 3.0 0.00 0.00 0.00 66 1010.3
20210803103005 66 265 2.0 3.0 0.00 0.00 0.00 65 1010.3
20210803102506 67 265 2.0 3.0 0.00 0.00 0.00 65 1010.3
20210803102005 67 265 0.0 3.0 0.00 0.00 0.00 67 1010.3
20210803101505 67 265 1.0 3.0 0.00 0.00 0.00 67 1010.4
20210803101005 67 263 1.0 3.0 0.00 0.00 0.00 65 1010.4
20210803100505 67 263 1.0 3.0 0.00 0.00 0.00 63 1010.4
20210803100005 67 263 0.0 2.0 0.00 0.00 0.00 61 1010.4
20210803095505 68 263 1.0 2.0 0.00 0.00 0.00 61 1010.5
20210803095005 68 263 1.0 2.0 0.00 0.00 0.00 61 1010.4
20210803094505 68 263 0.0 3.0 0.00 0.00 0.00 61 1010.4
20210803094005 68 263 1.0 3.0 0.00 0.00 0.00 61 1010.5
20210803093505 68 263 2.0 3.0 0.00 0.00 0.00 59 1010.4
20210803093005 68 263 1.0 3.0 0.00 0.00 0.00 58 1010.4
20210803092505 68 263 1.0 7.0 0.00 0.00 0.00 58 1010.4
20210803092005 68 263 1.0 8.0 0.00 0.00 0.00 59 1010.4
20210803091505 68 263 5.0 8.0 0.00 0.00 0.00 58 1010.5
20210803091005 68 270 5.0 8.0 0.00 0.00 0.00 59 1010.5
20210803090505 68 271 3.0 7.0 0.00 0.00 0.00 60 1010.6
20210803090005 68 271 4.0 7.0 0.00 0.00 0.00 60 1010.6
20210803085505 68 276 5.0 7.0 0.00 0.00 0.00 59 1010.6
20210803085005 67 281 3.0 6.0 0.00 0.00 0.00 61 1010.6
20210803084505 67 281 4.0 6.0 0.00 0.00 0.00 61 1010.7
20210803084006 67 318 2.0 5.0 0.00 0.00 0.00 62 1010.7
20210803083505 67 321 3.0 5.0 0.00 0.00 0.00 62 1010.8
20210803083005 67 326 1.0 3.0 0.00 0.00 0.00 64 1010.8
20210803082505 67 326 0.0 3.0 0.00 0.00 0.00 62 1010.9
20210803082005 67 326 1.0 3.0 0.00 0.00 0.00 60 1010.9
20210803081505 67 326 1.0 3.0 0.00 0.00 0.00 61 1010.9
20210803081005 67 326 1.0 3.0 0.00 0.00 0.00 62 1010.9
20210803080505 67 326 2.0 3.0 0.00 0.00 0.00 63 1011.0
20210803080005 67 326 1.0 5.0 0.00 0.00 0.00 64 1011.1
20210803075506 68 326 3.0 5.0 0.00 0.00 0.00 64 1011.1
20210803075005 68 40 2.0 5.0 0.00 0.00 0.00 65 1011.0
20210803074505 68 40 3.0 6.0 0.00 0.00 0.00 63 1011.1
20210803074005 70 20 2.0 7.0 0.00 0.00 0.00 59 1011.1
20210803073505 70 290 3.0 7.0 0.00 0.00 0.00 57 1011.0
20210803073005 70 290 3.0 7.0 0.00 0.00 0.00 57 1011.1
20210803072505 69 280 2.0 6.0 0.00 0.00 0.00 57 1011.0
20210803072005 69 280 2.0 6.0 0.00 0.00 0.00 57 1011.1
20210803071505 69 275 3.0 6.0 0.00 0.00 0.00 58 1011.1
20210803071005 69 275 3.0 6.0 0.00 0.00 0.00 58 1011.2
20210803070505 69 275 3.0 5.0 0.00 0.00 0.00 59 1011.3
20210803070005 69 275 1.0 5.0 0.00 0.00 0.00 59 1011.3
20210803065505 69 275 2.0 5.0 0.00 0.00 0.00 60 1011.4
20210803065005 69 275 2.0 5.0 0.00 0.00 0.00 60 1011.5
20210803064504 69 275 2.0 3.0 0.00 0.00 0.00 60 1011.5
20210803064005 70 275 2.0 6.0 0.00 0.00 0.00 59 1011.6
20210803063505 70 275 3.0 6.0 0.00 0.00 0.00 58 1011.6
20210803063005 70 275 3.0 6.0 0.00 0.00 0.00 58 1011.6
20210803062505 70 290 2.0 6.0 0.00 0.00 0.00 59 1011.6
20210803062005 70 294 1.0 8.0 0.00 0.00 0.00 59 1011.5
20210803061505 71 294 3.0 8.0 0.00 0.00 0.00 58 1011.5
20210803061005 71 296 4.0 8.0 0.00 0.00 0.00 58 1011.4
20210803060505 71 290 2.0 5.0 0.00 0.00 0.00 58 1011.3
20210803060005 71 290 2.0 5.0 0.00 0.00 0.00 58 1011.4
20210803055505 71 290 2.0 5.0 0.00 0.00 0.00 59 1011.3
20210803055005 71 290 2.0 6.0 0.00 0.00 0.00 59 1011.2
20210803054506 71 290 3.0 6.0 0.00 0.00 0.00 60 1011.2
20210803054005 71 290 3.0 6.0 0.00 0.00 0.00 60 1011.3
20210803053505 71 290 3.0 6.0 0.00 0.00 0.00 60 1011.2
20210803053006 71 283 3.0 6.0 0.00 0.00 0.00 61 1011.0
20210803052505 71 296 2.0 6.0 0.00 0.00 0.00 61 1011.2
20210803052005 71 54 4.0 6.0 0.00 0.00 0.00 59 1011.3
20210803051505 71 300 1.0 2.0 0.00 0.00 0.00 58 1011.1
20210803051004 72 292 1.0 1.0 0.00 0.00 0.00 56 1011.1
20210803050504 72 292 1.0 1.0 0.00 0.00 0.00 56 1011.1
20210803050004 72 292 1.0 3.0 0.00 0.00 0.00 56 1011.1
20210803045504 72 292 1.0 5.0 0.00 0.00 0.00 56 1011.1
20210803045005 73 292 2.0 5.0 0.00 0.00 0.00 55 1011.2
20210803044506 73 290 2.0 6.0 0.00 0.00 0.00 55 1011.4
20210803044005 73 290 2.0 8.0 0.00 0.00 0.00 55 1011.4
20210803043505 73 310 3.0 8.0 0.00 0.00 0.00 55 1011.4
20210803043005 73 288 5.0 6.0 0.00 0.00 0.00 55 1011.5
20210803042505 73 356 3.0 6.0 0.00 0.00 0.00 56 1011.6
20210803042005 73 26 2.0 3.0 0.00 0.00 0.00 57 1011.6
20210803041505 73 26 0.0 2.0 0.00 0.00 0.00 59 1011.6
20210803041005 73 26 0.0 2.0 0.00 0.00 0.00 57 1011.6
20210803040505 73 26 1.0 5.0 0.00 0.00 0.00 57 1011.7
20210803040005 73 26 1.0 5.0 0.00 0.00 0.00 56 1011.7
20210803035505 74 19 2.0 5.0 0.00 0.00 0.00 55 1011.7
20210803035004 74 268 1.0 3.0 0.00 0.00 0.00 54 1011.7
20210803034505 73 268 1.0 2.0 0.00 0.00 0.00 55 1011.7
20210803034005 73 268 0.0 2.0 0.00 0.00 0.00 55 1011.7
20210803033505 73 268 0.0 0.0 0.00 0.00 0.00 56 1011.7
20210803033005 73 268 0.0 3.0 0.00 0.00 0.00 54 1011.7
20210803032505 73 268 0.0 3.0 0.00 0.00 0.00 57 1011.8
20210803032005 73 268 0.0 3.0 0.00 0.00 0.00 57 1011.8
20210803031505 74 268 1.0 2.0 0.00 0.00 0.00 55 1011.8
20210803031005 74 268 1.0 3.0 0.00 0.00 0.00 55 1011.7
20210803030505 74 268 0.0 5.0 0.00 0.00 0.00 52 1011.8
20210803030006 74 268 2.0 5.0 0.00 0.00 0.00 52 1011.7
20210803025506 74 271 2.0 5.0 0.00 0.00 0.00 52 1011.7
20210803025006 75 321 2.0 5.0 0.00 0.00 0.00 52 1011.6
20210803024505 75 321 0.0 7.0 0.00 0.00 0.00 52 1011.5
20210803024005 75 321 3.0 7.0 0.00 0.00 0.00 51 1011.5
20210803023506 75 291 5.0 7.0 0.00 0.00 0.00 50 1011.5
20210803023005 76 300 5.0 7.0 0.00 0.00 0.00 50 1011.6
20210803022504 76 279 4.0 6.0 0.00 0.00 0.00 50 1011.5
20210803022005 76 283 3.0 10.0 0.00 0.00 0.00 50 1011.5
20210803021504 76 286 5.0 10.0 0.00 0.00 0.00 49 1011.5
20210803021005 77 281 6.0 12.0 0.00 0.00 0.00 49 1011.5
20210803020505 77 268 7.0 12.0 0.00 0.00 0.00 48 1011.5
20210803020006 77 260 7.0 12.0 0.00 0.00 0.00 48 1011.5
20210803015504 77 268 6.0 12.0 0.00 0.00 0.00 48 1011.5
20210803015004 77 279 7.0 14.0 0.00 0.00 0.00 48 1011.5
20210803014504 77 272 7.0 14.0 0.00 0.00 0.00 48 1011.5
20210803014005 78 264 9.0 14.0 0.00 0.00 0.00 47 1011.4
20210803013504 78 255 7.0 10.0 0.00 0.00 0.00 48 1011.4
20210803013004 78 267 5.0 9.0 0.00 0.00 0.00 48 1011.3
20210803012504 78 278 5.0 12.0 0.00 0.00 0.00 48 1011.2
20210803012005 78 278 7.0 12.0 0.00 0.00 0.00 48 1011.3
20210803011504 78 266 6.0 12.0 0.00 0.00 0.00 48 1011.2
20210803011005 78 267 5.0 12.0 0.00 0.00 0.00 49 1011.2
20210803010504 78 273 4.0 6.0 0.00 0.00 0.00 49 1011.0
20210803010006 78 255 3.0 6.0 0.00 0.00 0.00 49 1011.0
20210803005505 78 255 2.0 6.0 0.00 0.00 0.00 49 1011.1
20210803005005 79 255 3.0 6.0 0.00 0.00 0.00 49 1011.0
20210803004504 79 255 2.0 5.0 0.00 0.00 0.00 49 1011.1
20210803004004 79 255 2.0 3.0 0.00 0.00 0.00 49 1011.1
20210803003504 79 255 0.0 3.0 0.00 0.00 0.00 49 1011.1
20210803003004 79 255 1.0 3.0 0.00 0.00 0.00 49 1011.2
20210803002504 79 255 1.0 5.0 0.00 0.00 0.00 49 1011.2
20210803002005 79 255 0.0 5.0 0.00 0.00 0.00 49 1011.1
20210803001504 79 255 1.0 6.0 0.00 0.00 0.00 49 1011.2
20210803001004 79 255 2.0 6.0 0.00 0.00 0.00 50 1011.2
20210803000504 83 97 0.0 0.0 0.00 0.00 0.00 46 1011.1
20210803000004 83 97 0.0 0.0 0.00 0.00 0.00 46 1011.1
20210802235504 83 97 0.0 0.0 0.00 0.00 0.00 46 1011.1
20210802235004 83 97 0.0 0.0 0.00 0.00 0.00 46 1011.1
20210802234505 83 97 0.0 0.0 0.00 0.00 0.00 46 1011.1
20210802234004 83 97 0.0 0.0 0.00 0.00 0.00 46 1011.1
20210802233504 83 97 0.0 0.0 0.00 0.00 0.00 46 1011.1
20210802233004 83 97 0.0 0.0 0.00 0.00 0.00 46 1011.1
20210802232504 83 97 0.0 0.0 0.00 0.00 0.00 46 1011.1
20210802232004 83 97 0.0 0.0 0.00 0.00 0.00 46 1011.1
20210802231504 83 97 0.0 0.0 0.00 0.00 0.00 46 1011.1
20210802231004 83 97 0.0 1.0 0.00 0.00 0.00 46 1011.1
20210802230504 83 97 0.0 3.0 0.00 0.00 0.00 46 1011.1
20210802230006 84 97 1.0 6.0 0.00 0.00 0.00 44 1011.0
20210802225504 85 196 1.0 6.0 0.00 0.00 0.00 42 1011.1
20210802225005 85 223 2.0 6.0 0.00 0.00 0.00 39 1011.2
20210802224504 85 171 1.0 5.0 0.00 0.00 0.00 38 1011.1
20210802224005 85 178 2.0 7.0 0.00 0.00 0.00 39 1011.1
20210802223504 84 179 2.0 8.0 0.00 0.00 0.00 40 1010.9
20210802223005 84 132 1.0 9.0 0.00 0.00 0.00 38 1010.9
20210802222504 84 145 3.0 9.0 0.00 0.00 0.00 39 1010.9
20210802222004 84 121 3.0 8.0 0.00 0.00 0.00 39 1010.9
20210802221504 84 122 5.0 8.0 0.00 0.00 0.00 40 1011.0
20210802221004 84 123 3.0 7.0 0.00 0.00 0.00 41 1011.0
20210802220505 84 187 4.0 8.0 0.00 0.00 0.00 38 1011.2
20210802220005 84 149 5.0 8.0 0.00 0.00 0.00 39 1011.4
20210802215504 84 164 5.0 8.0 0.00 0.00 0.00 41 1011.6
20210802215004 84 165 3.0 12.0 0.00 0.00 0.00 40 1011.6
20210802214505 83 193 5.0 12.0 0.00 0.00 0.00 39 1011.9
20210802214004 84 169 7.0 12.0 0.00 0.00 0.00 40 1012.0
20210802213504 84 176 4.0 9.0 0.00 0.00 0.00 39 1012.1
20210802213004 83 225 4.0 9.0 0.00 0.00 0.00 42 1012.1
20210802212504 83 188 5.0 9.0 0.00 0.00 0.00 41 1012.2
20210802212004 83 153 5.0 10.0 0.00 0.00 0.00 42 1012.2
20210802211504 83 116 2.0 12.0 0.00 0.00 0.00 41 1012.2
20210802211004 83 128 6.0 12.0 0.00 0.00 0.00 40 1012.2
20210802210504 82 143 2.0 9.0 0.00 0.00 0.00 42 1012.3
20210802210004 82 121 4.0 9.0 0.00 0.00 0.00 40 1012.3
20210802205504 82 153 4.0 10.0 0.00 0.00 0.00 42 1012.4
20210802205005 82 105 5.0 10.0 0.00 0.00 0.00 42 1012.5
20210802204504 83 134 5.0 9.0 0.00 0.00 0.00 41 1012.5
20210802204004 83 166 4.0 10.0 0.00 0.00 0.00 44 1012.7
20210802203504 82 168 4.0 10.0 0.00 0.00 0.00 44 1012.8
20210802203004 81 185 7.0 10.0 0.00 0.00 0.00 43 1012.9
20210802202504 82 154 5.0 10.0 0.00 0.00 0.00 44 1012.9
20210802202004 81 99 6.0 10.0 0.00 0.00 0.00 43 1012.9
20210802201504 81 135 6.0 12.0 0.00 0.00 0.00 44 1013.0
20210802201004 81 197 5.0 12.0 0.00 0.00 0.00 44 1013.1
20210802200504 81 159 3.0 12.0 0.00 0.00 0.00 44 1013.2
20210802200005 81 121 5.0 10.0 0.00 0.00 0.00 45 1013.3
20210802195504 81 169 3.0 9.0 0.00 0.00 0.00 46 1013.4
20210802195004 80 192 5.0 9.0 0.00 0.00 0.00 47 1013.6
20210802194504 80 83 5.0 9.0 0.00 0.00 0.00 44 1013.7
20210802194004 80 128 4.0 9.0 0.00 0.00 0.00 42 1013.7
20210802193504 80 158 5.0 10.0 0.00 0.00 0.00 48 1013.9
20210802193004 79 100 5.0 10.0 0.00 0.00 0.00 47 1013.9
20210802192504 79 111 7.0 12.0 0.00 0.00 0.00 43 1014.1
20210802192004 79 87 6.0 12.0 0.00 0.00 0.00 46 1014.1
20210802191504 78 109 8.0 12.0 0.00 0.00 0.00 45 1014.2
20210802191004 78 138 8.0 12.0 0.00 0.00 0.00 47 1014.3
20210802190504 79 136 8.0 12.0 0.00 0.00 0.00 45 1014.4
20210802190004 79 139 6.0 12.0 0.00 0.00 0.00 46 1014.4
20210802185504 78 149 6.0 12.0 0.00 0.00 0.00 48 1014.6
20210802185005 78 135 6.0 12.0 0.00 0.00 0.00 45 1014.7
20210802184504 77 118 6.0 12.0 0.00 0.00 0.00 47 1014.7
20210802184004 78 145 7.0 12.0 0.00 0.00 0.00 45 1014.8
20210802183504 78 152 6.0 9.0 0.00 0.00 0.00 44 1014.9
20210802183004 78 139 5.0 9.0 0.00 0.00 0.00 44 1014.9
20210802182503 78 102 5.0 9.0 0.00 0.00 0.00 46 1015.0
20210802182004 77 125 5.0 9.0 0.00 0.00 0.00 46 1015.0
20210802181505 77 109 5.0 9.0 0.00 0.00 0.00 45 1015.2
20210802181004 76 104 3.0 7.0 0.00 0.00 0.00 50 1015.3
20210802180504 76 79 5.0 8.0 0.00 0.00 0.00 48 1015.3
20210802180004 76 93 2.0 9.0 0.00 0.00 0.00 47 1015.4
20210802175504 76 122 5.0 9.0 0.00 0.00 0.00 47 1015.5
20210802175004 76 80 4.0 7.0 0.00 0.00 0.00 48 1015.5
20210802174505 76 96 2.0 9.0 0.00 0.00 0.00 48 1015.5
20210802174004 75 210 4.0 9.0 0.00 0.00 0.00 46 1015.5
20210802173504 75 167 1.0 8.0 0.00 0.00 0.00 50 1015.6
20210802173004 75 165 3.0 8.0 0.00 0.00 0.00 50 1015.6
20210802172504 74 170 2.0 8.0 0.00 0.00 0.00 52 1015.7
20210802172004 74 175 5.0 8.0 0.00 0.00 0.00 51 1015.7
20210802171504 73 147 2.0 5.0 0.00 0.00 0.00 55 1015.8
20210802171004 73 137 3.0 6.0 0.00 0.00 0.00 55 1015.7
20210802170503 72 162 3.0 6.0 0.00 0.00 0.00 55 1015.9
20210802170004 72 84 3.0 6.0 0.00 0.00 0.00 55 1015.9
20210802165504 71 100 3.0 6.0 0.00 0.00 0.00 55 1016.0
20210802165004 71 101 3.0 6.0 0.00 0.00 0.00 54 1016.0
20210802164504 71 101 3.0 6.0 0.00 0.00 0.00 54 1016.1
20210802164004 71 101 3.0 6.0 0.00 0.00 0.00 51 1016.1
20210802163504 71 97 2.0 6.0 0.00 0.00 0.00 53 1016.1
20210802163005 71 87 2.0 5.0 0.00 0.00 0.00 55 1016.0
20210802162507 71 87 1.0 5.0 0.00 0.00 0.00 55 1016.2
20210802162007 71 87 3.0 5.0 0.00 0.00 0.00 55 1016.1
20210802161504 71 87 1.0 6.0 0.00 0.00 0.00 57 1016.1
20210802161005 70 87 3.0 6.0 0.00 0.00 0.00 58 1016.2
20210802160505 70 37 3.0 6.0 0.00 0.00 0.00 57 1016.1
20210802160005 70 18 2.0 5.0 0.00 0.00 0.00 54 1016.1
20210802155505 71 18 1.0 5.0 0.00 0.00 0.00 54 1016.1
20210802155007 71 18 2.0 5.0 0.00 0.00 0.00 57 1016.1
20210802154504 70 17 2.0 5.0 0.00 0.00 0.00 57 1016.2
20210802154005 70 17 1.0 3.0 0.00 0.00 0.00 58 1016.3
20210802153505 70 17 1.0 2.0 0.00 0.00 0.00 58 1016.3
20210802153005 69 17 1.0 2.0 0.00 0.00 0.00 59 1016.4
20210802152505 68 17 0.0 2.0 0.00 0.00 0.00 60 1016.5
20210802152005 67 17 0.0 3.0 0.00 0.00 0.00 62 1016.6
20210802151505 67 17 1.0 3.0 0.00 0.00 0.00 62 1016.6
20210802151005 66 17 1.0 5.0 0.00 0.00 0.00 62 1016.8
20210802150505 66 17 2.0 5.0 0.00 0.00 0.00 62 1016.8
20210802150005 66 17 2.0 5.0 0.00 0.00 0.00 62 1016.7
20210802145506 66 17 1.0 3.0 0.00 0.00 0.00 64 1016.9
20210802145005 65 17 1.0 5.0 0.00 0.00 0.00 64 1017.0
20210802144505 65 17 2.0 5.0 0.00 0.00 0.00 64 1016.9
20210802144005 65 17 3.0 5.0 0.00 0.00 0.00 66 1016.9
20210802143505 65 17 2.0 6.0 0.00 0.00 0.00 66 1017.0
20210802143006 64 17 4.0 6.0 0.00 0.00 0.00 66 1016.9
20210802142505 64 2 4.0 6.0 0.00 0.00 0.00 66 1017.0
20210802142005 64 324 3.0 5.0 0.00 0.00 0.00 69 1017.0
20210802141507 64 323 2.0 5.0 0.00 0.00 0.00 68 1016.9
20210802141005 64 323 1.0 5.0 0.00 0.00 0.00 68 1016.9
20210802140505 64 323 3.0 5.0 0.00 0.00 0.00 67 1016.8
20210802140005 64 323 1.0 3.0 0.00 0.00 0.00 69 1016.8
20210802135505 63 323 1.0 3.0 0.00 0.00 0.00 69 1016.7
20210802135005 63 323 1.0 3.0 0.00 0.00 0.00 68 1016.7
20210802134505 63 323 1.0 3.0 0.00 0.00 0.00 69 1016.7
20210802134005 62 323 0.0 3.0 0.00 0.00 0.00 70 1016.7
20210802133505 62 323 1.0 3.0 0.00 0.00 0.00 71 1016.7
20210802133006 62 323 1.0 6.0 0.00 0.00 0.00 71 1016.6
20210802132505 61 323 1.0 6.0 0.00 0.00 0.00 70 1016.5
20210802131504 60 325 2.0 6.0 0.00 0.00 0.00 71 1016.4
20210802131005 60 325 2.0 5.0 0.00 0.00 0.00 71 1016.5
20210802130505 59 325 3.0 5.0 0.00 0.00 0.00 73 1016.5
20210802130005 59 325 5.0 5.0 0.00 0.00 0.00 74 1016.5
20210802125505 58 326 2.0 5.0 0.00 0.00 0.00 75 1016.4
20210802125005 58 326 2.0 5.0 0.00 0.00 0.00 76 1016.4
20210802124505 58 326 1.0 3.0 0.00 0.00 0.00 76 1016.5
20210802124005 58 326 0.0 1.0 0.00 0.00 0.00 77 1016.4
20210802123505 58 326 0.0 1.0 0.00 0.00 0.00 76 1016.4
20210802123005 57 326 0.0 1.0 0.00 0.00 0.00 76 1016.3
20210802122505 57 326 0.0 2.0 0.00 0.00 0.00 76 1016.2
20210802122005 57 326 1.0 2.0 0.00 0.00 0.00 76 1016.2
20210802121505 57 326 1.0 2.0 0.00 0.00 0.00 76 1016.2
20210802121005 57 326 0.0 1.0 0.00 0.00 0.00 77 1016.4
20210802120505 59 326 0.0 0.0 0.00 0.00 0.00 74 1016.5
20210802120004 59 326 0.0 0.0 0.00 0.00 0.00 74 1016.5
20210802115504 59 326 0.0 0.0 0.00 0.00 0.00 74 1016.5
20210802115004 59 326 0.0 0.0 0.00 0.00 0.00 74 1016.5
20210802114504 59 326 0.0 0.0 0.00 0.00 0.00 74 1016.5